Flag for U.S.A. Weather past 2 weeks in Modesto, California, U.S.A.

Now
72 °F

Clear.


Feels Like: 77 °F
Forecast: 69 / 93 °F
Wind: 3 mph from Northeast

Location: Modesto City-County-Sham Field

Current Time: Aug 30, 2014 at 2:24:04 AM

Latest Report: Aug 30, 2014 at 1:53 AM


Visibility: 10 mi

Pressure: 29.83 "Hg

Humidity: 43%

Dew point: 48 °F

Location of ModestoLocation

Historic Weather in Modesto — Graph

°F

Modesto temperature yesterday

Maximum temperature yesterday: 91 °F (at 2:53 PM)
Minimum temperature yesterday: 63 °F (at 6:53 AM)
Average temperature yesterday: 77 °F

Past Weeks' High & Low Weather Summary

 TemperatureHumidityPressure
High96 °F (Aug 28, 4:53 PM)87% (Aug 20, 5:53 AM)30.03 "Hg (Aug 20, 5:53 AM)
Low60 °F (Aug 21, 5:53 AM)14% (Aug 17, 2:53 PM)29.70 "Hg (Aug 18, 6:53 PM)
Average76 °F48%29.87 "Hg
* Reported Aug 15 12:53 AM — Aug 30 12:53 AM, Modesto, Weather by CustomWeather, © 2014

Note: Actual official high and low records may vary slightly from our data, if they occured in-between our weather recording intervals... More about our weather records

Advertising

Modesto weather history for previous 24 hours

 ConditionsComfort  
Time TempWeatherWind HumidityBarometerVisibility
12:53 AM
Aug 30
74 °FClear.3 mph38%29.84 "Hg10 mi
11:53 PM
Aug 29
75 °FClear.6 mph36%29.84 "Hg10 mi
10:53 PM77 °FClear.7 mph33%29.83 "Hg10 mi
9:53 PM79 °FClear.6 mph32%29.83 "Hg10 mi
8:53 PM81 °FClear.7 mph34%29.82 "Hg10 mi
7:53 PM84 °FSunny.9 mph33%29.82 "Hg10 mi
6:53 PM86 °FSunny.10 mph37%29.80 "Hg10 mi
5:53 PM89 °FSunny.13 mph31%29.80 "Hg10 mi
4:53 PM89 °FSunny.10 mph29%29.81 "Hg10 mi
3:53 PM88 °FSunny.12 mph31%29.81 "Hg10 mi
2:53 PM91 °FSunny.3 mph26%29.81 "Hg10 mi
1:53 PM90 °FSunny.7 mph29%29.84 "Hg10 mi
11:53 AM82 °FSunny.8 mph41%29.88 "Hg10 mi
10:53 AM77 °FSunny.10 mph47%29.89 "Hg10 mi
9:53 AM76 °FSunny.8 mph47%29.89 "Hg10 mi
8:53 AM69 °FSunny.5 mph59%29.88 "Hg10 mi
7:53 AM66 °FSunny.6 mph65%29.88 "Hg10 mi
6:53 AM63 °FClear.6 mph68%29.88 "Hg10 mi
5:53 AM65 °FClear.7 mph61%29.87 "Hg10 mi
4:53 AM68 °FClear.5 mph53%29.87 "Hg10 mi
3:53 AM70 °FClear.5 mph47%29.86 "Hg10 mi
2:53 AM72 °FClear.5 mph44%29.86 "Hg10 mi
Weather by CustomWeather, © 2014

See weather overviewHow to use our weather pages